Retour au catalogue

STARLINK-30510

ActifCommunicationsVLEO
NORAD 57981·PAYLOAD·🇺🇸 United States

Lancé Sep 30, 2023 depuis Cape Canaveral Space Force Station

Loading…

Prochains Passages (prochaines 24 heures)

TLE

FraisSource: CelesTrak SupGP

Époque: Sep 14, 2026, 22:05 UTC

1 57981C 23151T   26257.92062500 -.00063820  00000+0 -23102-2 0  2575
2 57981  43.0038   5.2405 0001881 268.0521 169.5698 15.27628762    19

Suivez STARLINK-30510 en temps réel avec AllMySat

Download on the App Store